Find Kosmos-2603

NORAD ID: 67677 Int'l Des: 2026-023 Owner: VVKOV Country: RU operational
LEOCIRCULARRETROGRADE

現在のビュー

3D地球を読み込み中...

Kosmos-2603について

説明を読み込み中...

次回通過

Passes for default location (London). Set your location on the main map for personalized predictions.

高度履歴

Loading altitude history...

軌道要素

1 67677U 26023D 26146.60923831 .00010161 00000-0 41558-3 0 9992
2 67677 96.6331 210.6304 0018144 206.9741 153.0558 15.24348674 16712
Epoch: May 26, 2026 • Age: 7 hours

現在のステータス

高度 513.1 km
速度 7.61 km/s
衛星直下点 57.90°N, 1.9°W
打ち上げ日 Feb 5, 2026
運用期間 0.3 years
タイプ other

技術仕様

分類 Payload
質量 500.00 kg
乾燥質量 500.00 kg
総質量 500.00 kg
長さ 3.00 m
直径 1.30 m
スパン 3.00 m
形状 Cyl + 2 Pan
製造者 UNKRU
バスタイプ Unk
フェーズステータス In Orbit
所有者/国 VVKOV/RU

Most Searched